Tracking 19827 objects as of 21-Aug-2019
HD Live streaming from Space Station
objects crossing your sky now

COSMOS 2353

Track COSMOS 2353 now!
10-day predictions
COSMOS 2353 is classified as:


NORAD ID: 25364
Int'l Code: 1998-036B
Perigee: 1,308.3 km
Apogee: 1,875.4 km
Inclination: 82.6 °
Period: 117.9 minutes
Semi major axis: 7962 km
RCS: 0.979 m2 (medium)
Launch date: June 15, 1998
Source: Commonwealth of Independent States (former USSR) (CIS)
Launch site: PLESETSK MISSILE AND SPACE COMPLEX (PKMTR)

Satellites have a single simultaneous earth-space and space-earth channel.
aabbcc
Your satellite tracking list
Your tracking list is empty




NASA's NSSDC Master Catalog

Two Line Element Set (TLE):
1 25364U 98036B   19232.88503286 -.00000016 +00000-0 -20884-3 0  9997
2 25364 082.5914 016.5573 0356057 040.3782 322.3144 12.21799877944669
Source of the keplerian elements: AFSPC